User: anonymous   Login
Location: Unspecified
(0.0000°N, 0.0000°E)
Time: 22:29:20
(UTC+00:00)
Language:

CXBN-2 - Orbit

View from above orbital plane
View from above orbital plane
View from above satellite
View from above satellite

Ground track
Ground track

The orbit data is extracted from the following two-line orbital elements,

1 42704U 98067LM  18344.54013531  .00105100  00000-0  40946-3 0  9992
2 42704  51.6277 166.2575 0003400 189.7768 170.3170 15.86268935 89753
Epoch (UTC): 10 December 2018 12:57:47
Eccentricity: 0.0003400
inclination: 51.6277°
perigee height: 310 km
apogee height: 315 km
right ascension of ascending node: 166.2575°
argument of perigee: 189.7768°
revolutions per day: 15.86268935
mean anomaly at epoch: 170.3170°
orbit number at epoch: 8975

The dashed part of the orbit path shows where the satellite is in the earth's shadow,  

DLR